DETTK EDDK-EDKV

Flight info

Callsign DETTK
Flight time 0h 31m
Altitude
Route
Aircraft C172

Departure

Time 2026-05-06 18:34
Airport Cologne Bonn Airport (EDDK)

Arrival

Time 2026-05-06 19:06
Airport Dahlemer Binz Airfield (EDKV)
Time Latitude Longitude Altitude Speed Heading
2026-05-06 18:24 50.87238 7.12404 227 ft 0 kts 92°
2026-05-06 18:26 50.87263 7.12395 227 ft 6 kts 304°
2026-05-06 18:27 50.87253 7.12348 227 ft 4 kts 247°
2026-05-06 18:27 50.87258 7.12296 227 ft 6 kts 257°
2026-05-06 18:27 50.87223 7.12270 227 ft 7 kts 197°
2026-05-06 18:27 50.87166 7.12239 227 ft 10 kts 202°
2026-05-06 18:28 50.87132 7.12202 228 ft 0 kts 226°
2026-05-06 18:30 50.87096 7.12147 229 ft 17 kts 211°
2026-05-06 18:30 50.86954 7.12274 229 ft 35 kts 138°
2026-05-06 18:31 50.86748 7.12571 233 ft 39 kts 137°
2026-05-06 18:31 50.86569 7.12829 239 ft 31 kts 138°
2026-05-06 18:31 50.86432 7.13030 243 ft 21 kts 137°
2026-05-06 18:31 50.86342 7.13142 246 ft 12 kts 97°
2026-05-06 18:32 50.86362 7.13135 246 ft 0 kts 318°
2026-05-06 18:33 50.86423 7.13047 244 ft 37 kts 317°
2026-05-06 18:34 50.86714 7.12611 309 ft 67 kts 316°
2026-05-06 18:34 50.87024 7.12095 564 ft 64 kts 316°
2026-05-06 18:34 50.87234 7.11467 767 ft 75 kts 269°
2026-05-06 18:34 50.86883 7.10786 1002 ft 82 kts 226°
2026-05-06 18:35 50.86414 7.10265 1229 ft 84 kts 217°
2026-05-06 18:35 50.85851 7.09919 1438 ft 86 kts 204°
2026-05-06 18:35 50.85240 7.09773 1642 ft 90 kts 195°
2026-05-06 18:35 50.84629 7.09621 1868 ft 90 kts 195°
2026-05-06 18:36 50.84212 7.09536 1990 ft 96 kts 193°
2026-05-06 18:36 50.83469 7.09382 1986 ft 114 kts 193°
2026-05-06 18:36 50.82687 7.09201 2019 ft 112 kts 194°
2026-05-06 18:36 50.81915 7.09004 2035 ft 113 kts 195°
2026-05-06 18:37 50.80870 7.08692 2019 ft 118 kts 197°
2026-05-06 18:37 50.80343 7.08527 2149 ft 104 kts 197°
2026-05-06 18:37 50.79631 7.08308 2294 ft 113 kts 198°
2026-05-06 18:37 50.78862 7.08040 2309 ft 112 kts 198°
2026-05-06 18:38 50.78107 7.07759 2310 ft 111 kts 199°
2026-05-06 18:38 50.77351 7.07442 2270 ft 114 kts 202°
2026-05-06 18:38 50.76590 7.07089 2248 ft 112 kts 206°
2026-05-06 18:38 50.75978 7.06413 2262 ft 106 kts 231°
2026-05-06 18:39 50.75444 7.05613 2246 ft 106 kts 233°
2026-05-06 18:39 50.74936 7.04805 2253 ft 105 kts 233°
2026-05-06 18:39 50.74413 7.03960 2229 ft 107 kts 235°
2026-05-06 18:40 50.73541 7.02449 2741 ft 81 kts 238°
2026-05-06 18:40 50.73170 7.01779 2933 ft 81 kts 240°
2026-05-06 18:40 50.72807 7.01092 3127 ft 82 kts 242°
2026-05-06 18:40 50.72435 7.00310 3175 ft 100 kts 242°
2026-05-06 18:41 50.72018 6.99400 3199 ft 103 kts 241°
2026-05-06 18:41 50.71577 6.98484 3204 ft 105 kts 241°
2026-05-06 18:41 50.71117 6.97588 3250 ft 104 kts 239°
2026-05-06 18:41 50.70648 6.96701 3267 ft 106 kts 237°
2026-05-06 18:42 50.70139 6.95844 3292 ft 107 kts 233°
2026-05-06 18:42 50.69616 6.95001 3305 ft 109 kts 229°
2026-05-06 18:42 50.69037 6.94220 3325 ft 110 kts 228°
2026-05-06 18:42 50.68457 6.93425 3331 ft 111 kts 230°
2026-05-06 18:43 50.67896 6.92592 3355 ft 110 kts 232°
2026-05-06 18:43 50.67340 6.91758 3369 ft 110 kts 230°
2026-05-06 18:43 50.66770 6.90960 3395 ft 109 kts 229°
2026-05-06 18:43 50.66201 6.90157 3412 ft 110 kts 229°
2026-05-06 18:44 50.65624 6.89370 3436 ft 110 kts 229°
2026-05-06 18:44 50.65039 6.88591 3458 ft 110 kts 227°
2026-05-06 18:44 50.64465 6.87800 3466 ft 110 kts 229°
2026-05-06 18:44 50.63894 6.86997 3475 ft 110 kts 229°
2026-05-06 18:45 50.63314 6.86205 3501 ft 111 kts 227°
2026-05-06 18:45 50.62711 6.85432 3496 ft 113 kts 224°
2026-05-06 18:45 50.62116 6.84639 3496 ft 111 kts 229°
2026-05-06 18:45 50.61532 6.83836 3487 ft 112 kts 228°
2026-05-06 18:46 50.60929 6.83062 3509 ft 112 kts 225°
2026-05-06 18:46 50.60332 6.82283 3499 ft 111 kts 231°
2026-05-06 18:46 50.59775 6.81440 3507 ft 110 kts 231°
2026-05-06 18:46 50.59222 6.80606 3495 ft 112 kts 230°
2026-05-06 18:47 50.58637 6.79796 3535 ft 111 kts 229°
2026-05-06 18:47 50.58055 6.78984 3583 ft 112 kts 229°
2026-05-06 18:47 50.57467 6.78163 3560 ft 116 kts 229°
2026-05-06 18:47 50.56866 6.77309 3523 ft 116 kts 232°
2026-05-06 18:48 50.56325 6.76388 3534 ft 113 kts 233°
2026-05-06 18:48 50.55753 6.75573 3558 ft 112 kts 229°
2026-05-06 18:48 50.55167 6.74722 3506 ft 116 kts 230°
2026-05-06 18:48 50.54594 6.73857 3510 ft 114 kts 231°
2026-05-06 18:49 50.54013 6.73010 3516 ft 116 kts 230°
2026-05-06 18:49 50.53444 6.72119 3511 ft 116 kts 232°
2026-05-06 18:49 50.52879 6.71240 3526 ft 113 kts 232°
2026-05-06 18:49 50.52328 6.70378 3507 ft 114 kts 232°
2026-05-06 18:50 50.51765 6.69499 3494 ft 115 kts 232°
2026-05-06 18:50 50.51201 6.68626 3507 ft 113 kts 233°
2026-05-06 18:50 50.50660 6.67730 3506 ft 113 kts 233°
2026-05-06 18:50 50.50109 6.66849 3499 ft 113 kts 232°
2026-05-06 18:51 50.49555 6.65974 3500 ft 113 kts 232°
2026-05-06 18:51 50.48988 6.65108 3478 ft 115 kts 230°
2026-05-06 18:51 50.48389 6.64295 3482 ft 113 kts 227°
2026-05-06 18:51 50.47788 6.63485 3464 ft 114 kts 229°
2026-05-06 18:52 50.47289 6.62541 3468 ft 110 kts 244°
2026-05-06 18:52 50.46906 6.61596 3612 ft 99 kts 246°
2026-05-06 18:52 50.46543 6.60657 3605 ft 103 kts 247°
2026-05-06 18:52 50.46161 6.59707 3636 ft 103 kts 245°
2026-05-06 18:53 50.45771 6.58757 3624 ft 104 kts 246°
2026-05-06 18:53 50.45407 6.57792 3638 ft 103 kts 248°
2026-05-06 18:53 50.45042 6.56806 3611 ft 106 kts 248°
2026-05-06 18:53 50.44673 6.55791 3602 ft 107 kts 245°
2026-05-06 18:54 50.44258 6.54809 3606 ft 108 kts 244°
2026-05-06 18:54 50.43853 6.53823 3606 ft 108 kts 245°
2026-05-06 18:54 50.43469 6.52823 3613 ft 106 kts 248°
2026-05-06 18:54 50.43120 6.51799 3614 ft 106 kts 251°
2026-05-06 18:55 50.42580 6.51006 3631 ft 115 kts 202°
2026-05-06 18:55 50.41752 6.51015 3599 ft 122 kts 179°
2026-05-06 18:55 50.40914 6.51142 3613 ft 120 kts 177°
2026-05-06 18:55 50.40086 6.51361 3602 ft 122 kts 170°
2026-05-06 18:56 50.39272 6.51709 3610 ft 121 kts 165°
2026-05-06 18:56 50.38479 6.52138 3624 ft 119 kts 161°
2026-05-06 18:56 50.37743 6.52622 3506 ft 115 kts 156°
2026-05-06 18:56 50.37124 6.53354 3266 ft 111 kts 120°
2026-05-06 18:57 50.36953 6.54451 3062 ft 101 kts 77°
2026-05-06 18:57 50.37241 6.55325 2889 ft 83 kts 22°
2026-05-06 18:57 50.37748 6.55172 2645 ft 82 kts 313°
2026-05-06 18:57 50.37917 6.54283 2579 ft 87 kts 289°
2026-05-06 18:58 50.38240 6.53582 2584 ft 83 kts 332°
2026-05-06 18:58 50.38823 6.53466 2572 ft 89 kts
2026-05-06 18:58 50.39361 6.54038 2547 ft 99 kts 46°
2026-05-06 18:58 50.39622 6.54996 2634 ft 99 kts 85°
2026-05-06 18:59 50.39183 6.55827 2590 ft 111 kts 171°
2026-05-06 18:59 50.38568 6.55321 2513 ft 105 kts 258°
2026-05-06 18:59 50.38753 6.54352 2527 ft 93 kts 304°
2026-05-06 18:59 50.38898 6.53357 2503 ft 99 kts 272°
2026-05-06 19:00 50.38633 6.52361 2498 ft 89 kts 247°
2026-05-06 19:00 50.38340 6.51593 2361 ft 81 kts 249°
2026-05-06 19:00 50.38290 6.50850 2300 ft 65 kts 306°
2026-05-06 19:00 50.38705 6.50612 2229 ft 69 kts
2026-05-06 19:01 50.39101 6.51039 2222 ft 73 kts 43°
2026-05-06 19:01 50.39561 6.51254 2241 ft 72 kts
2026-05-06 19:01 50.40018 6.51649 2383 ft 85 kts 32°
2026-05-06 19:01 50.40373 6.52453 2565 ft 93 kts 53°
2026-05-06 19:02 50.40710 6.53372 2669 ft 98 kts 53°
2026-05-06 19:02 50.41064 6.54306 2670 ft 100 kts 52°
2026-05-06 19:02 50.41243 6.55349 2690 ft 110 kts 104°
2026-05-06 19:02 50.40682 6.56263 2598 ft 121 kts 142°
2026-05-06 19:03 50.39965 6.56832 2643 ft 114 kts 185°
2026-05-06 19:03 50.39399 6.56135 2630 ft 104 kts 248°
2026-05-06 19:03 50.39048 6.55153 2617 ft 104 kts 249°
2026-05-06 19:03 50.38689 6.54135 2554 ft 109 kts 250°
2026-05-06 19:04 50.38383 6.53077 2563 ft 103 kts 255°
2026-05-06 19:04 50.38129 6.52151 2569 ft 81 kts 256°
2026-05-06 19:04 50.37998 6.51347 2534 ft 69 kts 291°
2026-05-06 19:04 50.38302 6.50841 2506 ft 64 kts 338°
2026-05-06 19:05 50.38743 6.50638 2447 ft 69 kts 343°
2026-05-06 19:05 50.39211 6.50503 2419 ft 73 kts 351°
2026-05-06 19:05 50.39708 6.50600 2356 ft 77 kts 42°
2026-05-06 19:05 50.39961 6.51388 2156 ft 76 kts 52°
2026-05-06 19:06 50.40239 6.52067 1979 ft 73 kts 52°
2026-05-06 19:06 50.40484 6.52697 1896 ft 56 kts 52°
2026-05-06 19:06 50.40566 6.52913 1898 ft 0 kts 94°
2026-05-06 19:08 50.40522 6.52925 1898 ft 15 kts 189°
2026-05-06 19:08 50.40454 6.52781 1893 ft 9 kts 236°
2026-05-06 19:08 50.40435 6.52779 1897 ft 0 kts 144°
2026-05-06 19:25 50.40425 6.52787 1897 ft 6 kts 175°
2026-05-06 19:25 50.40432 6.52721 1897 ft 8 kts 245°
2026-05-06 19:25 50.40409 6.52666 1895 ft 8 kts 238°
2026-05-06 19:25 50.40352 6.52523 1895 ft 19 kts 237°
2026-05-06 19:26 50.40288 6.52356 1902 ft 15 kts 239°
2026-05-06 19:26 50.40281 6.52301 1902 ft 0 kts 292°
2026-05-06 19:27 50.40282 6.52296 1902 ft 0 kts 269°
2026-05-06 19:27 50.40296 6.52274 1894 ft 7 kts 319°
2026-05-06 19:28 50.40318 6.52274 1905 ft 0 kts 60°
2026-05-06 19:28 50.40321 6.52281 1901 ft 9 kts 59°
2026-05-06 19:28 50.40447 6.52608 1897 ft 59 kts 58°
2026-05-06 19:28 50.40705 6.53273 1970 ft 79 kts 53°
2026-05-06 19:29 50.40981 6.53980 2209 ft 74 kts 52°
2026-05-06 19:29 50.41265 6.54702 2354 ft 77 kts 46°
2026-05-06 19:29 50.41666 6.55115 2564 ft 68 kts 354°
2026-05-06 19:29 50.42103 6.54883 2768 ft 66 kts 338°
2026-05-06 19:30 50.42544 6.54597 2927 ft 70 kts 343°
2026-05-06 19:30 50.43025 6.54825 3104 ft 81 kts 36°
2026-05-06 19:30 50.43376 6.55479 3333 ft 77 kts 39°
2026-05-06 19:30 50.43739 6.56094 3520 ft 76 kts 37°
2026-05-06 19:31 50.44097 6.56725 3688 ft 79 kts 43°
2026-05-06 19:31 50.44444 6.57397 3881 ft 77 kts 37°
2026-05-06 19:31 50.45192 6.58628 4209 ft 79 kts 44°
2026-05-06 19:32 50.45533 6.59308 4368 ft 80 kts 43°
2026-05-06 19:32 50.45906 6.59961 4494 ft 86 kts 39°
2026-05-06 19:32 50.46344 6.60708 4498 ft 101 kts 41°
2026-05-06 19:32 50.46829 6.61536 4551 ft 101 kts 41°
2026-05-06 19:33 50.47308 6.62368 4524 ft 104 kts 41°
2026-05-06 19:33 50.47788 6.63237 4493 ft 104 kts 44°
2026-05-06 19:33 50.48234 6.64041 4258 ft 96 kts 40°
2026-05-06 19:33 50.48697 6.64830 3903 ft 102 kts 41°
2026-05-06 19:34 50.49171 6.65685 3563 ft 104 kts 43°
2026-05-06 19:34 50.49600 6.66509 3497 ft 97 kts 44°
2026-05-06 19:34 50.50042 6.67353 3505 ft 102 kts 43°
2026-05-06 19:34 50.50496 6.68211 3514 ft 103 kts 44°
2026-05-06 19:35 50.50958 6.69077 3535 ft 105 kts 43°
2026-05-06 19:35 50.51443 6.69937 3533 ft 106 kts 41°
2026-05-06 19:35 50.51934 6.70807 3551 ft 105 kts 42°
2026-05-06 19:35 50.52417 6.71679 3548 ft 107 kts 43°
2026-05-06 19:36 50.52910 6.72543 3550 ft 106 kts 41°
2026-05-06 19:36 50.53339 6.73477 3580 ft 104 kts 52°
2026-05-06 19:36 50.53757 6.74407 3579 ft 105 kts 46°
2026-05-06 19:36 50.54285 6.75124 3581 ft 99 kts 17°
2026-05-06 19:37 50.54957 6.75145 3547 ft 97 kts 345°
2026-05-06 19:37 50.55614 6.74924 3572 ft 95 kts 347°
2026-05-06 19:37 50.56274 6.74688 3535 ft 99 kts 345°
2026-05-06 19:37 50.56945 6.74445 3532 ft 99 kts 344°
2026-05-06 19:38 50.57609 6.74197 3556 ft 98 kts 344°
2026-05-06 19:38 50.58258 6.73888 3566 ft 96 kts 346°
2026-05-06 19:38 50.58878 6.73460 3508 ft 101 kts 333°
2026-05-06 19:38 50.59540 6.73014 3409 ft 106 kts 343°
2026-05-06 19:39 50.60258 6.72730 3332 ft 107 kts 345°
2026-05-06 19:39 50.60951 6.72693 3405 ft 103 kts 25°
2026-05-06 19:39 50.61441 6.73598 3422 ft 108 kts 49°
2026-05-06 19:39 50.61822 6.74613 3429 ft 108 kts 53°
2026-05-06 19:40 50.62180 6.75643 3461 ft 107 kts 56°
2026-05-06 19:40 50.62512 6.76683 3483 ft 107 kts 57°
2026-05-06 19:40 50.62822 6.77750 3512 ft 107 kts 59°
2026-05-06 19:40 50.63131 6.78826 3532 ft 108 kts 59°
2026-05-06 19:41 50.63417 6.79929 3550 ft 109 kts 63°
2026-05-06 19:41 50.63679 6.81047 3560 ft 109 kts 63°
2026-05-06 19:41 50.63943 6.82162 3559 ft 103 kts 61°
2026-05-06 19:41 50.64206 6.83176 3334 ft 97 kts 60°
2026-05-06 19:42 50.64480 6.84147 3040 ft 99 kts 57°
2026-05-06 19:42 50.64799 6.85082 2770 ft 96 kts 52°
2026-05-06 19:42 50.65137 6.85992 2500 ft 96 kts 52°
2026-05-06 19:42 50.65479 6.86882 2224 ft 95 kts 51°
2026-05-06 19:43 50.65819 6.87775 2041 ft 94 kts 52°
2026-05-06 19:43 50.66158 6.88698 2028 ft 100 kts 54°
2026-05-06 19:43 50.66490 6.89661 2051 ft 100 kts 55°
2026-05-06 19:43 50.66829 6.90622 2062 ft 99 kts 50°
2026-05-06 19:44 50.67223 6.91484 2113 ft 96 kts 46°
2026-05-06 19:44 50.67628 6.92345 2132 ft 97 kts 46°
2026-05-06 19:44 50.68043 6.93184 2152 ft 97 kts 39°
2026-05-06 19:44 50.68540 6.93931 2120 ft 101 kts 38°
2026-05-06 19:45 50.69059 6.94710 2067 ft 105 kts 36°
2026-05-06 19:45 50.69591 6.95511 2034 ft 106 kts 40°
2026-05-06 19:45 50.70096 6.96329 2041 ft 103 kts 40°
2026-05-06 19:45 50.70591 6.97124 2059 ft 100 kts 39°
2026-05-06 19:46 50.71079 6.97901 2065 ft 100 kts 38°
2026-05-06 19:46 50.71588 6.98641 2082 ft 99 kts 38°
2026-05-06 19:46 50.72083 6.99440 2042 ft 104 kts 40°
2026-05-06 19:46 50.72572 7.00292 2002 ft 106 kts 42°
2026-05-06 19:47 50.73051 7.01135 1992 ft 105 kts 41°
2026-05-06 19:47 50.73557 7.01933 2004 ft 102 kts 37°
2026-05-06 19:47 50.74060 7.02729 2001 ft 102 kts 38°
2026-05-06 19:47 50.74572 7.03510 1981 ft 104 kts 39°
2026-05-06 19:48 50.75071 7.04327 1960 ft 104 kts 40°
2026-05-06 19:48 50.75576 7.05145 1933 ft 104 kts 39°
2026-05-06 19:48 50.76084 7.05942 1922 ft 103 kts 37°
2026-05-06 19:48 50.76619 7.06710 1871 ft 106 kts 36°
2026-05-06 19:49 50.77216 7.07234 1907 ft 93 kts 360°
2026-05-06 19:49 50.77830 7.06969 1898 ft 91 kts 336°
2026-05-06 19:49 50.78407 7.06572 1916 ft 90 kts 336°
2026-05-06 19:49 50.78992 7.06212 1902 ft 91 kts 339°
2026-05-06 19:50 50.79586 7.05879 1919 ft 90 kts 341°
2026-05-06 19:50 50.80190 7.05597 1922 ft 91 kts 343°
2026-05-06 19:50 50.80793 7.05317 1926 ft 90 kts 342°
2026-05-06 19:50 50.81408 7.05074 1909 ft 92 kts 346°
2026-05-06 19:51 50.82016 7.04807 1925 ft 90 kts 340°
2026-05-06 19:51 50.82604 7.04461 1930 ft 91 kts 338°
2026-05-06 19:51 50.83186 7.04089 1951 ft 90 kts 338°
2026-05-06 19:51 50.83773 7.03734 1951 ft 91 kts 338°
2026-05-06 19:52 50.84381 7.03457 1953 ft 91 kts 345°
2026-05-06 19:52 50.84999 7.03244 1972 ft 91 kts 347°
2026-05-06 19:52 50.85615 7.03041 1981 ft 90 kts 345°
2026-05-06 19:52 50.86228 7.02805 1986 ft 91 kts 343°
2026-05-06 19:53 50.86835 7.02538 1992 ft 91 kts 342°
2026-05-06 19:53 50.87433 7.02232 2001 ft 90 kts 340°
2026-05-06 19:53 50.88028 7.01908 2002 ft 91 kts 339°
2026-05-06 19:53 50.88617 7.01552 2001 ft 91 kts 340°
2026-05-06 19:54 50.89208 7.01199 2014 ft 90 kts 337°
2026-05-06 19:54 50.89787 7.00810 2017 ft 91 kts 337°
2026-05-06 19:54 50.90377 7.00465 2036 ft 90 kts 340°
2026-05-06 19:54 50.90932 7.00144 2032 ft 72 kts 339°
2026-05-06 19:55 50.91369 6.99881 1996 ft 69 kts 337°
2026-05-06 19:55 50.91811 6.99591 1979 ft 70 kts 336°
2026-05-06 19:55 50.92244 6.99266 1987 ft 69 kts 333°
2026-05-06 19:55 50.92671 6.98914 1987 ft 69 kts 333°
2026-05-06 19:56 50.93097 6.98564 1988 ft 69 kts 332°
2026-05-06 19:56 50.93510 6.98174 1988 ft 69 kts 329°
2026-05-06 19:56 50.93922 6.97784 1983 ft 70 kts 331°
2026-05-06 19:56 50.94342 6.97401 1993 ft 69 kts 329°
2026-05-06 19:57 50.94668 6.96845 2001 ft 70 kts 303°
2026-05-06 19:57 50.94796 6.96067 1983 ft 76 kts 280°
2026-05-06 19:57 50.94636 6.95242 1968 ft 86 kts 241°
2026-05-06 19:57 50.94088 6.94779 1974 ft 94 kts 193°
2026-05-06 19:58 50.93445 6.95017 1968 ft 99 kts 146°
2026-05-06 19:58 50.93089 6.95881 1957 ft 94 kts 90°
2026-05-06 19:58 50.93281 6.96760 1972 ft 79 kts 37°
2026-05-06 19:58 50.93739 6.97124 1962 ft 72 kts
2026-05-06 19:59 50.94208 6.96963 1960 ft 70 kts 329°
2026-05-06 19:59 50.94504 6.96351 1964 ft 73 kts 292°
2026-05-06 19:59 50.94385 6.95516 1928 ft 88 kts 240°
2026-05-06 19:59 50.93821 6.95122 1931 ft 98 kts 181°
2026-05-06 20:00 50.93207 6.95600 1917 ft 104 kts 146°
2026-05-06 20:00 50.92572 6.96268 1888 ft 115 kts 147°
2026-05-06 20:00 50.91892 6.96964 1893 ft 118 kts 148°
2026-05-06 20:00 50.91203 6.97681 1899 ft 119 kts 147°
2026-05-06 20:01 50.90469 6.98314 1922 ft 118 kts 158°
2026-05-06 20:01 50.89702 6.98743 1956 ft 117 kts 166°
2026-05-06 20:01 50.88917 6.99104 1983 ft 117 kts 166°
2026-05-06 20:01 50.88133 6.99457 2006 ft 117 kts 167°
2026-05-06 20:02 50.87364 6.99838 2039 ft 117 kts 163°
2026-05-06 20:02 50.86591 7.00254 2051 ft 117 kts 164°
2026-05-06 20:02 50.85817 7.00678 2063 ft 118 kts 162°
2026-05-06 20:02 50.85063 7.01167 2088 ft 118 kts 152°
2026-05-06 20:03 50.84363 7.01859 2114 ft 118 kts 147°
2026-05-06 20:03 50.83677 7.02584 2113 ft 120 kts 145°
2026-05-06 20:03 50.83001 7.03341 2147 ft 118 kts 144°
2026-05-06 20:03 50.82384 7.04089 2027 ft 107 kts 134°
2026-05-06 20:04 50.81961 7.05084 1864 ft 108 kts 107°
2026-05-06 20:04 50.81788 7.06179 1777 ft 101 kts 88°
2026-05-06 20:04 50.81897 7.07253 1636 ft 99 kts 65°
2026-05-06 20:04 50.82131 7.08239 1567 ft 95 kts 59°
2026-05-06 20:05 50.82403 7.09231 1571 ft 102 kts 59°
2026-05-06 20:05 50.82704 7.10281 1545 ft 106 kts 59°
2026-05-06 20:05 50.83003 7.11363 1501 ft 108 kts 59°
2026-05-06 20:05 50.83302 7.12459 1461 ft 109 kts 60°
2026-05-06 20:06 50.83602 7.13568 1418 ft 111 kts 60°
2026-05-06 20:06 50.83895 7.14706 1365 ft 112 kts 62°
2026-05-06 20:06 50.84132 7.15856 1378 ft 107 kts 62°
2026-05-06 20:06 50.84620 7.16354 1466 ft 88 kts 339°
2026-05-06 20:07 50.84821 7.15465 1491 ft 101 kts 253°
2026-05-06 20:07 50.84532 7.14853 1469 ft 111 kts 232°
2026-05-06 20:07 50.83847 7.14405 1570 ft 108 kts 175°
2026-05-06 20:07 50.83321 7.15129 1660 ft 105 kts 101°
2026-05-06 20:08 50.83426 7.16218 1658 ft 100 kts 49°
2026-05-06 20:08 50.83797 7.17177 1687 ft 103 kts 52°
2026-05-06 20:08 50.84162 7.18158 1722 ft 103 kts 53°
2026-05-06 20:08 50.84540 7.19071 1813 ft 92 kts 40°
2026-05-06 20:09 50.85024 7.19544 1615 ft 79 kts
2026-05-06 20:09 50.85568 7.19498 1328 ft 79 kts 342°
2026-05-06 20:09 50.86068 7.19156 1156 ft 73 kts 333°
2026-05-06 20:09 50.86465 7.18755 1010 ft 67 kts 322°
2026-05-06 20:10 50.86815 7.18239 938 ft 76 kts 317°
2026-05-06 20:10 50.87229 7.17568 875 ft 90 kts 308°
2026-05-06 20:10 50.87278 7.16605 643 ft 97 kts 256°
2026-05-06 20:10 50.86990 7.15602 333 ft 96 kts 250°
2026-05-06 20:11 50.86716 7.14684 285 ft 96 kts 249°
2026-05-06 20:11 50.86413 7.13698 302 ft 103 kts 249°
2026-05-06 20:11 50.86029 7.12746 460 ft 102 kts 221°
2026-05-06 20:11 50.85342 7.12392 661 ft 110 kts 195°
2026-05-06 20:12 50.84606 7.12214 942 ft 105 kts 191°
2026-05-06 20:12 50.83830 7.12230 1088 ft 116 kts 179°
2026-05-06 20:12 50.83004 7.12349 1173 ft 114 kts 177°
2026-05-06 20:12 50.82255 7.12462 1250 ft 105 kts 178°
2026-05-06 20:13 50.81504 7.12618 1278 ft 112 kts 175°
2026-05-06 20:13 50.80710 7.12756 1285 ft 117 kts 179°
2026-05-06 20:13 50.79900 7.12853 1321 ft 117 kts 182°
2026-05-06 20:13 50.79084 7.12918 1344 ft 117 kts 179°
2026-05-06 20:14 50.78289 7.13068 1356 ft 113 kts 176°
2026-05-06 20:14 50.77507 7.13244 1340 ft 114 kts 174°
2026-05-06 20:14 50.76729 7.13530 1253 ft 116 kts 162°
2026-05-06 20:14 50.75953 7.13955 1115 ft 115 kts 163°
2026-05-06 20:15 50.75279 7.14603 1141 ft 115 kts 123°
2026-05-06 20:15 50.75026 7.15772 1096 ft 115 kts 98°
2026-05-06 20:15 50.74870 7.16970 1108 ft 105 kts 95°
2026-05-06 20:15 50.74778 7.18015 1071 ft 90 kts 83°
2026-05-06 20:16 50.74884 7.18959 984 ft 87 kts 68°
2026-05-06 20:16 50.75181 7.19699 915 ft 76 kts 25°
2026-05-06 20:16 50.75685 7.19938 807 ft 76 kts
2026-05-06 20:16 50.76160 7.19774 673 ft 73 kts 314°
2026-05-06 20:17 50.76311 7.19019 572 ft 69 kts 294°
2026-05-06 20:17 50.76461 7.18326 481 ft 66 kts 292°
2026-05-06 20:17 50.76612 7.17606 351 ft 72 kts 295°
2026-05-06 20:17 50.76774 7.16864 204 ft 65 kts 293°
2026-05-06 20:18 50.76895 7.16337 208 ft 39 kts 287°
2026-05-06 20:18 50.76992 7.15836 227 ft 64 kts 289°
2026-05-06 20:18 50.77102 7.15145 451 ft 65 kts 294°
2026-05-06 20:18 50.77166 7.14378 624 ft 82 kts 259°
2026-05-06 20:19 50.76715 7.13795 865 ft 93 kts 207°
2026-05-06 20:19 50.76063 7.13627 1092 ft 100 kts 181°
2026-05-06 20:19 50.75382 7.14022 1207 ft 109 kts 130°
2026-05-06 20:19 50.75114 7.15145 1150 ft 111 kts 100°
2026-05-06 20:20 50.74954 7.16332 1141 ft 110 kts 96°
2026-05-06 20:20 50.74806 7.17501 1150 ft 103 kts 95°
2026-05-06 20:20 50.74733 7.18511 1088 ft 85 kts 74°
2026-05-06 20:20 50.74948 7.19332 946 ft 78 kts 49°
2026-05-06 20:21 50.75347 7.19849 836 ft 71 kts 17°
2026-05-06 20:21 50.75810 7.19975 750 ft 66 kts 352°
2026-05-06 20:21 50.76169 7.19573 633 ft 70 kts 301°
2026-05-06 20:21 50.76340 7.18825 532 ft 72 kts 298°
2026-05-06 20:22 50.76503 7.18120 422 ft 68 kts 296°
2026-05-06 20:22 50.76653 7.17414 316 ft 71 kts 293°
2026-05-06 20:22 50.76803 7.16728 201 ft 57 kts 292°
2026-05-06 20:22 50.76908 7.16278 209 ft 34 kts 291°
2026-05-06 20:23 50.76967 7.15975 211 ft 25 kts 289°
2026-05-06 20:23 50.76984 7.15751 209 ft 18 kts 216°
2026-05-06 20:23 50.76908 7.15813 206 ft 15 kts 110°
2026-05-06 20:23 50.76873 7.15970 212 ft 25 kts 107°
2026-05-06 20:24 50.76806 7.16275 206 ft 30 kts 108°
2026-05-06 20:24 50.76749 7.16498 206 ft 8 kts 199°
2026-05-06 20:24 50.76698 7.16509 207 ft 11 kts 111°
2026-05-06 20:24 50.76693 7.16606 205 ft 9 kts 316°
2026-05-06 20:25 50.76690 7.16590 210 ft 0 kts 197°
2026-05-06 20:25 50.88775 7.01463 1998 ft 91 kts 340°
2026-05-06 20:25 50.76193 7.19491 615 ft 73 kts 299°
2026-05-06 20:26 50.76349 7.18791 530 ft 71 kts 297°
2026-05-06 20:26 50.76542 7.17970 419 ft 66 kts 298°
2026-05-06 20:26 50.76691 7.17238 288 ft 69 kts 294°
2026-05-06 20:26 50.76836 7.16587 205 ft 49 kts 294°